Burbank, CA

7:36 PM PDT on October 20, 2017 (GMT -0700)
Burbank-Glendale-Pasadena

Weather History for KBUR - September, 2011

Change the Weather History Date:

Thursday, September 1, 2011

  Actual Average Record
Temperature  
Mean Temperature 71 °F 75 °F  
Max Temperature 85 °F 88 °F 110 °F (1955)
Min Temperature 57 °F 62 °F 49 °F (1941)
Degree Days  
Heating Degree Days 0 0  
Month to date heating degree days 0 0  
Since 1 July heating degree days 0 0  
Cooling Degree Days 6 10  
Month to date cooling degree days 6 10  
Year to date cooling degree days 883 892  
Growing Degree Days 20 (Base 50)    
Moisture  
Dew Point 55 °F    
Average Humidity 60    
Maximum Humidity 87    
Minimum Humidity 32    
Precipitation  
Precipitation 0.00 in 0.00 in 0.01 in (1997)
Month to date precipitation 0.00 0.00  
Year to date precipitation 9.15 12.64  
Since 1 July precipitation T  
Sea Level Pressure  
Sea Level Pressure 29.81 in    
Wind  
Wind Speed 6 mph (SE)    
Max Wind Speed 12 mph    
Max Gust Speed 20 mph    
Visibility 8 miles    
Events      
T = Trace of Precipitation, MM = Missing Value Source: NWS Daily Summary

Daily Weather History Graph

Daily Weather History Graph

Search for Another Location

Airport or City:

Trip Planner

Search our weather history database for the weather conditions in past years. The results will help you decide how hot, cold, wet, or windy it might be!

Date:

Astronomy

Sep. 01, 2011 Rise Set
Actual Time 6:26 AM PDT 7:19 PM PDT
Civil Twilight 6:01 AM PDT 7:45 PM PDT
Nautical Twilight 5:30 AM PDT 8:15 PM PDT
Astronomical Twilight 4:59 AM PDT 8:46 PM PDT
Moon 10:36 AM PDT (9/1) 9:31 PM PDT (9/1)
Length of Visible Light 13h 44m
Length of Day
12h 52m
Waxing Crescent, 19% of the Moon is Illuminated
Sep 1
Waxing Crescent
Sep 4
First Quarter
Sep 12
Full
Sep 20
Last Quarter
Sep 27
New

Hourly Weather History & Observations

Time (PDT) Temp. Heat Index Dew Point Humidity Pressure Visibility Wind Dir Wind Speed Gust Speed Precip Events Conditions
12:53 AM 62.1 °F - 55.9 °F 80% 29.79 in 10.0 mi SE 3.5 mph - N/A   Clear
1:53 AM 61.0 °F - 55.9 °F 83% 29.79 in 10.0 mi SE 4.6 mph - N/A   Clear
2:53 AM 61.0 °F - 55.9 °F 83% 29.80 in 9.0 mi SSE 3.5 mph - N/A   Clear
3:53 AM 60.1 °F - 55.9 °F 86% 29.81 in 9.0 mi SE 3.5 mph - N/A   Clear
4:53 AM 59.0 °F - 55.0 °F 87% 29.81 in 9.0 mi Calm Calm - N/A   Clear
5:53 AM 59.0 °F - 52.0 °F 78% 29.81 in 10.0 mi Calm Calm - N/A   Clear
6:36 AM 57.2 °F - 55.4 °F 94% 29.85 in 2.5 mi SSE 3.5 mph - N/A   Partly Cloudy
6:51 AM 57.2 °F - 55.4 °F 94% 29.85 in 1.8 mi South 3.5 mph - N/A   Mostly Cloudy
6:53 AM 57.0 °F - 55.9 °F 96% 29.82 in 2.0 mi South 3.5 mph - N/A   Mostly Cloudy
7:53 AM 59.0 °F - 55.9 °F 90% 29.83 in 2.5 mi East 4.6 mph - N/A   Overcast
8:49 AM 62.6 °F - 55.4 °F 77% 29.87 in 3.0 mi South 4.6 mph - N/A   Haze
8:53 AM 62.1 °F - 55.9 °F 80% 29.84 in 3.0 mi South 4.6 mph - N/A   Haze
9:53 AM 66.0 °F - 55.9 °F 70% 29.85 in 4.0 mi SE 5.8 mph - N/A   Haze
10:53 AM 72.0 °F - 54.0 °F 53% 29.85 in 7.0 mi SE 8.1 mph - N/A   Clear
11:53 AM 75.9 °F - 55.9 °F 50% 29.84 in 7.0 mi SE 8.1 mph - N/A   Clear
12:53 PM 78.1 °F - 55.0 °F 45% 29.82 in 7.0 mi ESE 10.4 mph - N/A   Clear
1:53 PM 81.0 °F 80.7 °F 55.0 °F 41% 29.81 in 7.0 mi South 9.2 mph - N/A   Clear
2:53 PM 84.0 °F - 52.0 °F 33% 29.79 in 10.0 mi Variable 6.9 mph - N/A   Clear
3:53 PM 84.9 °F - 52.0 °F 32% 29.78 in 10.0 mi SSE 8.1 mph - N/A   Clear
4:53 PM 82.9 °F - 51.1 °F 33% 29.77 in 10.0 mi South 5.8 mph - N/A   Clear
5:53 PM 81.0 °F - 51.1 °F 35% 29.76 in 10.0 mi South 5.8 mph - N/A   Clear
6:53 PM 77.0 °F - 53.1 °F 43% 29.76 in 10.0 mi South 5.8 mph - N/A   Clear
7:53 PM 73.0 °F - 55.0 °F 53% 29.77 in 10.0 mi ESE 6.9 mph - N/A   Clear
8:53 PM 70.0 °F - 57.0 °F 63% 29.78 in 10.0 mi East 4.6 mph - N/A   Clear
9:53 PM 68.0 °F - 57.0 °F 68% 29.79 in 10.0 mi SE 4.6 mph - N/A   Clear
10:53 PM 66.0 °F - 55.9 °F 70% 29.81 in 10.0 mi SE 5.8 mph - N/A   Clear
11:53 PM 63.0 °F - 57.0 °F 81% 29.83 in 9.0 mi ESE 8.1 mph - N/A   Clear